{"data":{"norad_id":55640,"epoch":"2026-09-20T13:41:27.085632Z","epoch_age_seconds":96952,"freshness":"FRESH","line1":"1 55640U 23021N   26263.57045238  .00001875  00000+0  16494-3 0  9998","line2":"2 55640  69.9999  53.0521 0002646 273.9341  86.1516 14.98324844197984","mean_motion":14.98324844,"eccentricity":0.0002646,"inclination_deg":69.9999,"raan_deg":53.0521,"arg_perigee_deg":273.9341,"mean_anomaly_deg":86.1516,"bstar":0.00016494,"rev_number":19798,"period_min":96.107329846825,"perigee_km":570.23281023695,"apogee_km":573.91086075269,"semimajor_km":6950.2088354948,"source":"CELESTRAK","updated_at":"2026-09-21T09:00:33.282796Z"}}